User: anonymous   Login
Location: Clinton NY
(43.0598°N, 75.3602°W)
Time: 12:32:07
(UTC-05:00)
Language:

Iridium 11 - Orbit

View from above orbital plane
View from above orbital plane
View from above satellite
View from above satellite

Ground track
Ground track

The orbit data is extracted from the following two-line orbital elements,

1 25578U 98074B   15064.54441502  .00000234  00000-0  76595-4 0  9991
2 25578 086.3926 244.4591 0002145 096.2043 295.5656 14.34218686857773
Epoch (UTC): 05 March 2015 13:03:57
Eccentricity: 0.0002145
inclination: 86.3926°
perigee height: 776 km
apogee height: 779 km
right ascension of ascending node: 244.4591°
argument of perigee: 96.2043°
revolutions per day: 14.34218686
mean anomaly at epoch: 295.5656°
orbit number at epoch: 85777

The dashed part of the orbit path shows where the satellite is in the earth's shadow,  

DLR